When you browse on this site, cookies collect data to enhance your experience and personalize the content and advertising you see.
Visit our Privacy Policy to learn more. By continuing to use the site, you agree to this use of cookies and data.

Hourly Weather Lucena

Today, 7 August, Friday

Time Temperature Precipitation Wind Pressure Humidity
00:00 +24°C° 0 mm 2 mps 716 mmHg 60%
01:00 +23°C° 0.2 mm 2 mps 716 mmHg 61%
02:00 +23°C° 0.2 mm 1 mps 716 mmHg 62%
03:00 +23°C° 0.2 mm 1 mps 716 mmHg 63%
04:00 +23°C° 0 mm 1 mps 716 mmHg 60%
05:00 +23°C° 0 mm 1 mps 716 mmHg 58%
06:00 +24°C° 0 mm 1 mps 716 mmHg 56%
07:00 +26°C° 0 mm 1 mps 717 mmHg 48%
08:00 +29°C° 0 mm 1 mps 717 mmHg 41%
09:00 +31°C° 0 mm 1 mps 718 mmHg 33%
10:00 +34°C° 0 mm 2 mps 718 mmHg 28%
11:00 +36°C° 0 mm 2 mps 718 mmHg 24%
12:00 +39°C° 0 mm 3 mps 718 mmHg 20%
13:00 +40°C° 0 mm 3 mps 718 mmHg 18%
14:00 +41°C° 0 mm 4 mps 718 mmHg 16%
15:00 +42°C° 0 mm 5 mps 717 mmHg 15%
16:00 +41°C° 0 mm 6 mps 717 mmHg 17%
17:00 +39°C° 0 mm 6 mps 717 mmHg 19%
18:00 +38°C° 0 mm 6 mps 717 mmHg 21%
19:00 +34°C° 0 mm 5 mps 717 mmHg 29%
20:00 +30°C° 0 mm 4 mps 717 mmHg 37%
21:00 +27°C° 0 mm 2 mps 717 mmHg 44%
22:00 +26°C° 0 mm 2 mps 718 mmHg 48%
23:00 +25°C° 0 mm 2 mps 718 mmHg 51%

Tomorrow, 8 August, Saturday

Time Temperature Precipitation Wind Pressure Humidity
00:00 +24°C° 0 mm 1 mps 718 mmHg 55%
01:00 +24°C° 0 mm 1 mps 718 mmHg 56%
02:00 +23°C° 0 mm 1 mps 718 mmHg 56%
03:00 +23°C° 0 mm 1 mps 718 mmHg 57%
04:00 +23°C° 0 mm 1 mps 718 mmHg 55%
05:00 +23°C° 0 mm 1 mps 718 mmHg 52%
06:00 +24°C° 0 mm 1 mps 718 mmHg 50%
07:00 +26°C° 0 mm 1 mps 718 mmHg 41%
08:00 +29°C° 0 mm 1 mps 718 mmHg 33%
09:00 +32°C° 0 mm 1 mps 719 mmHg 25%
10:00 +35°C° 0.1 mm 2 mps 719 mmHg 21%
11:00 +37°C° 0.1 mm 2 mps 719 mmHg 18%
12:00 +39°C° 0.1 mm 2 mps 719 mmHg 14%
13:00 +40°C° 0.3 mm 3 mps 718 mmHg 14%
14:00 +41°C° 0.3 mm 4 mps 718 mmHg 15%
15:00 +42°C° 0.3 mm 5 mps 718 mmHg 15%
16:00 +41°C° 0 mm 4 mps 717 mmHg 15%
17:00 +40°C° 0 mm 4 mps 717 mmHg 15%
18:00 +40°C° 0 mm 4 mps 717 mmHg 15%
19:00 +36°C° 0 mm 3 mps 717 mmHg 18%
20:00 +34°C° 0 mm 3 mps 717 mmHg 20%
21:00 +30°C° 0 mm 2 mps 717 mmHg 22%
22:00 +29°C° 0 mm 2 mps 717 mmHg 24%
23:00 +28°C° 0 mm 1 mps 717 mmHg 26%

Day after tomorrow, 9 August, Sunday

Time Temperature Precipitation Wind Pressure Humidity
00:00 +27°C° 0 mm 1 mps 717 mmHg 28%
01:00 +26°C° 0 mm 1 mps 716 mmHg 29%
02:00 +26°C° 0 mm 1 mps 716 mmHg 30%
03:00 +25°C° 0 mm 1 mps 716 mmHg 31%
04:00 +25°C° 0 mm 1 mps 716 mmHg 32%
05:00 +25°C° 0 mm 1 mps 716 mmHg 33%
06:00 +24°C° 0 mm 1 mps 716 mmHg 34%
07:00 +27°C° 0 mm 1 mps 716 mmHg 29%
08:00 +30°C° 0 mm 1 mps 716 mmHg 24%
09:00 +34°C° 0 mm 2 mps 717 mmHg 18%
10:00 +36°C° 0 mm 2 mps 717 mmHg 17%
11:00 +38°C° 0 mm 2 mps 717 mmHg 16%
12:00 +40°C° 0 mm 3 mps 717 mmHg 15%
13:00 +42°C° 0 mm 3 mps 716 mmHg 14%
14:00 +43°C° 0 mm 4 mps 716 mmHg 13%
15:00 +45°C° 0 mm 5 mps 715 mmHg 12%
16:00 +43°C° 0 mm 5 mps 715 mmHg 13%
17:00 +42°C° 0 mm 4 mps 715 mmHg 14%
18:00 +41°C° 0 mm 4 mps 715 mmHg 15%
19:00 +37°C° 0 mm 4 mps 715 mmHg 19%
20:00 +34°C° 0 mm 3 mps 715 mmHg 23%
21:00 +31°C° 0 mm 2 mps 715 mmHg 26%
22:00 +30°C° 0 mm 2 mps 715 mmHg 28%
23:00 +29°C° 0 mm 2 mps 715 mmHg 30%

10 August, Monday

Time Temperature Precipitation Wind Pressure Humidity
00:00 +28°C° 0 mm 1 mps 715 mmHg 32%
01:00 +27°C° 0 mm 1 mps 714 mmHg 33%
02:00 +27°C° 0 mm 1 mps 714 mmHg 34%
03:00 +26°C° 0 mm 1 mps 714 mmHg 35%
04:00 +26°C° 0 mm 1 mps 714 mmHg 35%
05:00 +26°C° 0 mm 1 mps 714 mmHg 35%
06:00 +26°C° 0 mm 1 mps 714 mmHg 35%
07:00 +28°C° 0 mm 1 mps 714 mmHg 31%
08:00 +31°C° 0 mm 1 mps 715 mmHg 27%
09:00 +33°C° 0 mm 1 mps 715 mmHg 22%
10:00 +36°C° 0 mm 2 mps 715 mmHg 20%
11:00 +37°C° 0 mm 3 mps 715 mmHg 18%
12:00 +39°C° 0 mm 3 mps 715 mmHg 16%
13:00 +39°C° 0 mm 3 mps 715 mmHg 16%
14:00 +39°C° 0 mm 3 mps 714 mmHg 16%
15:00 +39°C° 0 mm 2 mps 714 mmHg 16%
16:00 +38°C° 0.1 mm 3 mps 714 mmHg 18%
17:00 +37°C° 0.1 mm 3 mps 714 mmHg 19%
18:00 +36°C° 0.1 mm 3 mps 714 mmHg 21%
19:00 +34°C° 0.1 mm 3 mps 714 mmHg 26%
20:00 +31°C° 0.1 mm 2 mps 715 mmHg 30%
21:00 +29°C° 0.1 mm 2 mps 715 mmHg 35%
22:00 +28°C° 0.2 mm 2 mps 715 mmHg 38%
23:00 +27°C° 0.2 mm 1 mps 715 mmHg 41%

11 August, Tuesday

Time Temperature Precipitation Wind Pressure Humidity
00:00 +26°C° 0.2 mm 1 mps 715 mmHg 43%
01:00 +26°C° 0.2 mm 1 mps 714 mmHg 44%
02:00 +26°C° 0.2 mm 1 mps 714 mmHg 44%
03:00 +25°C° 0.2 mm 1 mps 713 mmHg 45%
04:00 +25°C° 0 mm 1 mps 713 mmHg 45%
05:00 +23°C° 0 mm 0 mps 714 mmHg 46%
06:00 +23°C° 0 mm 0 mps 714 mmHg 46%
07:00 +27°C° 0 mm 1 mps 714 mmHg 41%
08:00 +29°C° 0 mm 1 mps 714 mmHg 36%
09:00 +32°C° 0 mm 1 mps 715 mmHg 30%
10:00 +34°C° 0.1 mm 2 mps 715 mmHg 29%
11:00 +36°C° 0.1 mm 4 mps 715 mmHg 27%
12:00 +37°C° 0.1 mm 5 mps 715 mmHg 25%
13:00 +39°C° 0 mm 5 mps 714 mmHg 24%
14:00 +39°C° 0 mm 6 mps 714 mmHg 24%
15:00 +39°C° 0 mm 6 mps 713 mmHg 24%
16:00 +38°C° 0.1 mm 6 mps 713 mmHg 25%
17:00 +36°C° 0.1 mm 5 mps 713 mmHg 27%
18:00 +35°C° 0.1 mm 5 mps 713 mmHg 29%
19:00 +33°C° 0 mm 4 mps 713 mmHg 31%
20:00 +30°C° 0 mm 4 mps 714 mmHg 33%
21:00 +28°C° 0 mm 3 mps 714 mmHg 36%
22:00 +27°C° 0 mm 2 mps 714 mmHg 38%
23:00 +26°C° 0 mm 2 mps 714 mmHg 41%

12 August, Wednesday

Time Temperature Precipitation Wind Pressure Humidity
00:00 +25°C° 0 mm 1 mps 714 mmHg 44%
01:00 +24°C° 0 mm 1 mps 714 mmHg 45%
02:00 +23°C° 0 mm 1 mps 714 mmHg 47%
03:00 +23°C° 0 mm 1 mps 713 mmHg 48%
04:00 +22°C° 0 mm 1 mps 714 mmHg 51%
05:00 +22°C° 0 mm 1 mps 714 mmHg 53%
06:00 +19°C° 0 mm 0 mps 714 mmHg 56%
07:00 +23°C° 0 mm 1 mps 714 mmHg 50%
08:00 +25°C° 0 mm 2 mps 714 mmHg 45%
09:00 +27°C° 0 mm 2 mps 715 mmHg 39%
10:00 +29°C° 0 mm 3 mps 715 mmHg 33%
11:00 +30°C° 0 mm 3 mps 715 mmHg 27%
12:00 +33°C° 0 mm 3 mps 715 mmHg 21%
13:00 +34°C° 0 mm 4 mps 715 mmHg 19%
14:00 +35°C° 0 mm 4 mps 715 mmHg 17%
15:00 +36°C° 0 mm 4 mps 714 mmHg 15%
16:00 +35°C° 0 mm 4 mps 714 mmHg 16%
17:00 +34°C° 0 mm 5 mps 714 mmHg 18%
18:00 +33°C° 0 mm 5 mps 714 mmHg 19%
19:00 +30°C° 0 mm 4 mps 714 mmHg 26%
20:00 +27°C° 0 mm 3 mps 714 mmHg 32%
21:00 +25°C° 0 mm 2 mps 714 mmHg 39%
22:00 +24°C° 0 mm 2 mps 714 mmHg 46%
23:00 +23°C° 0 mm 1 mps 714 mmHg 53%
Show more